Location: Berlise
(49.6641°N, 4.1077°E)
Time: 19:11:30
(UTC+00:00)

USA 215 - Pass Details

Date: 27 January 2021
Orbit: 1103 x 1105 km, 123.0° (Epoch: 14 February)

Event Time Altitude Azimuth Distance (km) Brightness Sun altitude
Rises 06:15:42 0° 80° (E) 3,924 7.4 -10.9°
Reaches altitude 10° 06:18:16 10° 75° (ENE) 2,966 6.5 -10.5°
Maximum altitude 06:24:28 48° 4° (N) 1,421 3.8 -9.5°
Drops below altitude 10° 06:30:40 10° 293° (WNW) 2,967 4.8 -8.6°
Enters shadow 06:30:40 10° 293° (WNW) 2,968 4.8 -8.6°
